Regional Weather Roundup
Issued by NWS State College, PA

Home | Current Version | Previous Version | Text Only | Print | Product List | Glossary On
Versions: 1 2 3 4 5 6 7 8 9 10 11 12 13 14 15 16 17 18 19 20 21 22 23 24 25 26 27 28 29 30 31 32 33 34 35 36 37 38 39 40 41 42 43 44 45 46 47 48 49 50
114
ASUS41 KCTP 260210
RWRCTP
NATIONAL WEATHER SERVICE STATE COLLEGE PA
1000 PM EDT MON SEP 25 2017

Note: "fair" indicates few or no clouds below 12,000 feet with no
significant weather and/or obstructions to visibility.

* = STATION THAT DOES NOT REPORT PRECIPITATION /E.G. RAIN...SNOW...ETC/
    THUNDER OR FOG.

PAZ002>004-007>009-013>016-020>023-029>032-260300-
WESTERN PENNSYLVANIA

CITY           SKY/WX    TMP DP  RH WIND       PRES   REMARKS
ERIE           PTCLDY    73  67  81 S5        30.01S
MEADVILLE      CLEAR     74  66  76 CALM      30.05F
FRANKLIN*      CLEAR     71  67  87 CALM      30.06F
NEW CASTLE     FAIR      66  63  90 SW3       30.04S
BEAVER COUNTY  NOT AVBL
BUTLER*        PTCLDY    69  64  84 CALM      30.04F
PITTSBURGH INT MOCLDY    75  64  68 CALM      30.03S
PITTSBURGH     CLEAR     79  62  56 CALM      30.03S
INDIANA*       CLEAR     70  68  94 CALM      30.08S
LATROBE        CLEAR     70  70 100 CALM      30.05S
WASHINGTON CO* CLEAR     64  63  94 CALM      30.04F
$$

PAZ004>006-010>012-017>019-024>028-033>037-041-042-045-046-049>053-260300-
CENTRAL PENNSYLVANIA

CITY           SKY/WX    TMP DP  RH WIND       PRES   REMARKS
BRADFORD       CLEAR     65  63  93 CALM      30.10F
DUBOIS         CLEAR     73  63  70 E6        30.07F
CLEARFIELD     CLEAR     70  67  90 N6        30.07F
JOHNSTOWN      CLEAR     72  65  78 E3        30.10F
ALTOONA        CLEAR     71  66  84 SE3       30.08S
STATE COLLEGE  NOT AVBL
WILLIAMSPORT   PTCLDY    72  69  90 E3        30.01S
SELINSGROVE    CLEAR     69  69 100 CALM      30.02F FOG
FT INDIANTOWN  PTCLDY    72  72 100 CALM      30.00R
CAPITAL CITY   MOCLDY    75  68  78 SW3       30.01S
HARRISBURG     CLOUDY    74  73  97 CALM      30.00S
YORK           CLOUDY    70  69  97 CALM      30.01S
$$

PAZ038>040-043-044-047-048-054-055-060>062-067>071-260300-
EASTERN PENNSYLVANIA

CITY           SKY/WX    TMP DP  RH WIND       PRES   REMARKS
SCRANTON       CLEAR     74  67  78 E6        30.05F
MOUNT POCONO   CLEAR     66  66 100 CALM      30.11F
ALLENTOWN      MOCLDY    78  65  63 E6        30.04R
QUAKERTOWN*    PTCLDY    73  66  78 CALM      30.06R
READING        CLOUDY    80  70  71 SE8       30.01S
LANCASTER      CLOUDY    75  71  87 SE7       30.02R
COATESVILLE    CLOUDY    73  68  83 CALM      30.05F
POTTSTOWN      CLOUDY    73  67  81 CALM      30.05S
BLUE BELL      PTCLDY    68  64  88 CALM      30.04F
DOYLESTOWN     PTCLDY    73  65  75 CALM      30.03S
WILLOW GROVE   NOT AVBL
NORTH PHILA    PTCLDY    73  62  68 E6        30.04S
PHILADELPHIA   CLOUDY    72  64  76 E7        30.02S
$$




USA.gov is the U.S. government's official web portal to all federal, state and local government web resources and services.